This demonstration page uses our WeatherBlox Daily Observations layout. Learn more.

Left ArrowRight Arrow

39.12711, -84.51439

Hourly Observations for January 7, 2022

Temp ( °F °C ) Dew Point ( °F °C ) Humidity (%) Winds ( mph kmh ) Pressure ( in mb ) Visibility ( mi km ) Precip ( " mm )
12:53 am 00:53 Cloudy 18 -7.8 9 -12.8 68 68 W 15 24 30.18 1022 10 16 0.00 0.00
1:40 am 01:40 Cloudy 18 -7.8 9 -12.8 68 68 NW 7 11 30.21 1023 10 16 0.00 0.00
1:53 am 01:53 Cloudy 18 -7.8 8 -13.3 65 65 WNW 7 11 30.19 1022 10 16 0.00 0.00
2:14 am 02:14 Cloudy 17 -8.3 8 -13.3 68 68 WNW 12 19 30.23 1024 10 16 0.00 0.00
2:27 am 02:27 Partly Cloudy 16 -8.9 6 -14.4 65 65 WNW 16 26 30.24 1024 10 16 0.00 0.00
2:53 am 02:53 Clear 15 -9.4 6 -14.4 67 67 W 15 24 30.22 1023 10 16 0.00 0.00
3:53 am 03:53 Mostly Clear 15 -9.4 7 -13.9 70 70 NW 8 13 30.23 1024 10 16 0.00 0.00
4:53 am 04:53 Mostly Clear 13 -10.6 6 -14.4 74 74 NNW 8 13 30.25 1024 10 16 0.00 0.00
5:32 am 05:32 Mostly Cloudy 13 -10.6 7 -13.9 77 77 NW 8 13 30.29 1026 10 16 0.00 0.00
5:53 am 05:53 Cloudy 13 -10.6 7 -13.9 77 77 NNW 7 11 30.28 1025 10 16 0.00 0.00
6:53 am 06:53 Mostly Cloudy 13 -10.6 6 -14.4 74 74 W 12 19 30.31 1026 10 16 0.00 0.00
7:53 am 07:53 Cloudy 13 -10.6 6 -14.4 74 74 W 9 15 30.32 1027 10 16 0.00 0.00
8:53 am 08:53 Cloudy 13 -10.6 7 -13.9 77 77 WSW 12 19 30.35 1028 10 16 0.00 0.00
9:53 am 09:53 Cloudy 14 -10 7 -13.9 73 73 WSW 7 11 30.37 1029 10 16 0.00 0.00
10:53 am 10:53 Cloudy 16 -8.9 9 -12.8 74 74 WSW 7 11 30.39 1029 10 16 0.00 0.00
11:53 am 11:53 Cloudy with Light Snow 16 -8.9 9 -12.8 74 74 SW 12 19 30.41 1030 8 13 0.00 0.00
12:53 pm 12:53 Cloudy 17 -8.3 9 -12.8 70 70 SW 10 17 30.40 1029 10 16 0.00 0.00
1:53 pm 13:53 Cloudy 18 -7.8 8 -13.3 65 65 WSW 8 13 30.40 1029 10 16 0.00 0.00
2:53 pm 14:53 Cloudy 18 -7.8 9 -12.8 68 68 SW 5 7 30.41 1030 10 16 0.00 0.00
3:53 pm 15:53 Cloudy 18 -7.8 9 -12.8 68 68 S 5 7 30.42 1030 10 16 0.00 0.00
4:53 pm 16:53 Cloudy 18 -7.8 9 -12.8 68 68 SW 5 7 30.46 1032 10 16 0.00 0.00
5:53 pm 17:53 Cloudy 16 -8.9 8 -13.3 71 71 SSW 5 7 30.47 1032 10 16 0.00 0.00
6:53 pm 18:53 Mostly Cloudy 15 -9.4 9 -12.8 77 77 S 3 6 30.48 1032 10 16 0.00 0.00
7:53 pm 19:53 Clear 15 -9.4 9 -12.8 77 77 Calm 30.48 1032 10 16 0.00 0.00
8:53 pm 20:53 Clear 17 -8.3 9 -12.8 70 70 Calm 30.50 1033 10 16 0.00 0.00
9:53 pm 21:53 Clear 16 -8.9 9 -12.8 74 74 Calm 30.50 1033 10 16 0.00 0.00
10:53 pm 22:53 Clear 15 -9.4 9 -12.8 77 77 Calm 30.49 1033 10 16 0.00 0.00
11:53 pm 23:53 Clear 14 -10 9 -12.8 80 80 SSE 5 7 30.50 1033 10 16 0.00 0.00

Powered by AerisWeather